Flag for Brazil Weather past 2 weeks in Fernando de Noronha, Pernambuco, Brazil

Now
75 °F

Partly cloudy.


Feels Like: 76 °F
Forecast: 77 / 79 °F
Wind: 12 mph from South

Location: Natal Aeroporto

Current Time: Jul 23, 2014 at 1:20:48 AM

Latest Report: Jul 23, 2014 at 1:00 AM


Visibility: N/A

Pressure: 30.07 "Hg

Humidity: 78%

Dew point: 68 °F

Location of Fernando de NoronhaLocation

Historic Weather in Fernando de Noronha — Graph

°F

Fernando de Noronha temperature yesterday

Maximum temperature yesterday: 82 °F (at 12:00 PM)
Minimum temperature yesterday: 72 °F (at 6:00 AM)
Average temperature yesterday: 77 °F

Past Weeks' High & Low Weather Summary

 TemperatureHumidityPressure
High86 °F (Jul 15, 2:00 PM)100% (Jul 8, 9:00 AM)30.09 "Hg (Jul 8, 9:00 AM)
Low39 °F (Jul 8, 9:00 AM)48% (Jul 15, 1:00 PM)29.92 "Hg (Jul 10, 3:00 PM)
Average75 °F79%30.02 "Hg
* Reported Midnight between Jul 7 and Jul 8 — Midnight between Jul 22 and Jul 23, Fernando de Noronha, Weather by CustomWeather, © 2014

Note: Actual official high and low records may vary slightly from our data, if they occured in-between our weather recording intervals... More about our weather records

Advertising

Fernando de Noronha weather history for previous 24 hours

 ConditionsComfort  
Time TempWeatherWind HumidityBarometerVisibility
12:00 AM
Jul 23
77 °FPassing clouds.10 mph74%30.07 "HgN/A
11:00 PM
Jul 22
77 °FClear.13 mph74%30.07 "Hg10 mi
10:00 PM77 °FPassing clouds.13 mph74%30.07 "HgN/A
3:00 PM82 °FBroken clouds.25 mph55%29.98 "HgN/A
2:00 PM82 °FBroken clouds.25 mph62%30.01 "HgN/A
1:00 PM79 °FScattered clouds.23 mph74%30.04 "HgN/A
12:00 PM82 °FScattered showers. Broken clouds.20 mph62%30.04 "HgN/A
11:00 AM79 °FScattered showers. Broken clouds.21 mph74%30.07 "HgN/A
10:00 AM79 °FBroken clouds.13 mph74%30.07 "HgN/A
9:00 AM77 °FScattered showers. Broken clouds.14 mph79%30.04 "HgN/A
8:00 AM75 °FScattered showers. Broken clouds.10 mph83%30.04 "HgN/A
7:00 AM73 °FScattered clouds.9 mph83%30.01 "HgN/A
6:00 AM72 °FPartly cloudy.8 mph83%30.01 "HgN/A
5:00 AM73 °FPassing clouds.9 mph83%29.98 "HgN/A
4:00 AM73 °FPassing clouds.8 mph83%29.98 "HgN/A
3:00 AM73 °FPassing clouds.9 mph83%30.01 "HgN/A
2:00 AM73 °FPartly cloudy.9 mph83%30.01 "HgN/A
1:00 AM75 °FScattered showers. Passing clouds.9 mph78%30.04 "HgN/A
Weather by CustomWeather, © 2014

See weather overviewHow to use our weather pages